Rbgn^[z[y[W
メイン
   新天体発見情報
     Comet C/2007 G1 (LINEAR)
投稿するにはまず登録を

フラット表示 前のトピック | 次のトピック
投稿者 スレッド
佐藤裕久
投稿日時: 2007-4-14 0:46
モデレータ
登録日: 2005-6-12
居住地: 日本
投稿: 2608
オンライン
Comet C/2007 G1 (LINEAR)

外見上小惑星状の天体がLINEARサーベイによって発見された。
直ちにNEOCPウェッブページに掲載され、幾人かの観測者((G. SosteroとE. Guido;
Castellammare di Stabia、イタリア、0.25-m f/3.4 反射remotely near Mayhill、NM;
E. Guido、 A. LepardoとSostero:Remanzacco、イタリア、0.45-m f/4.4反射;
R. Ligustri:Udine、イタリア、0.32-m f/9反射; P. Birtwhistle:Great Shefford、
Berkshire、英国、0.40-m f/6 Schmidt-Cassegrain))によって彗星状であることが
わかった。

発見位置は次のとおり、

     2007 UT             R.A. (2000) Decl.       Mag.
     Apr. 10.37946   18 05 10.44   +33 53 44.3   18.6

暫定放物線軌道要素、位置推算表は次のとおり、

Orbital elements:
    C/2007 G1 (LINEAR)
T 2009 Mar. 8.637 TT                                    MPC
q   2.46334              (2000.0)            P               Q
                   Peri.  232.663       -0.243937       +0.197660
                   Node    72.236       -0.197313       +0.948416
e   1.0            Incl.   94.461       -0.949506       -0.247867
From 51 observations 2007 Apr. 10-12.

Ephemeris:
    C/2007 G1 (LINEAR)
Date    TT    R. A. (2000) Decl.     Delta      r     Elong.  Phase   m1
2007 04 10    18 05.26   +33 52.0    6.785    7.019    99.4     8.1  17.6
2007 04 20    18 02.25   +34 35.6    6.622    6.945   104.7     8.0  17.5
2007 04 30    17 57.93   +35 14.4    6.468    6.870   109.5     7.9  17.4
2007 05 10    17 52.34   +35 45.8    6.326    6.796   113.8     7.8  17.3
2007 05 20    17 45.61   +36 06.7    6.198    6.721   117.2     7.7  17.2
2007 05 30    17 37.93   +36 14.5    6.087    6.647   119.6     7.6  17.1

Computer: Marsden

(IAUC 8828、MPEC 2007-G37)
フラット表示 前のトピック | 次のトピック

題名 投稿者 日時
 » Comet C/2007 G1 (LINEAR) 佐藤裕久 2007-4-14 0:46

投稿するにはまず登録を
 
© 1999 Tsutomu Seki.